[[{"header":{"parameterUnit":"m.s-1","parameterCategory":1,"la1":30.2991,"la2":30.254,"lo1":-89.0895,"lo2":-89.0444,"dy":0.0017,"dx":0.0017,"nx":28,"ny":28,"refTime":"2025-03-12T21:00:00:Z","depth":0,"parameterNumber":2,"parameterNumberName":"U-component_of_WINDS"},"data":[0,0,0,0,0,0,0,0,0,0,0,0,0,0,0,0,0,0,0,0,0,0,0,0,0,0,0,0,0,0,0,0,0,0,0,0,0,0,0,0,0,0,0,0,0,0,0,0,0,0,0,0,0,0,0,0,0,0,-1.5724,-1.5723,0,-1.5655,-1.5655,-1.5654,-1.5576,-1.5575,-1.5574,-1.5573,-1.5502,-1.5501,-1.55,0,0,0,0,0,0,0,0,0,0,0,0,0,-1.5788,-1.5788,-1.5724,-1.5723,-1.5722,-1.5655,-1.5654,-1.5654,-1.5576,-1.5575,-1.5574,-1.5572,-1.5502,-1.5501,-1.55,0,0,0,0,0,0,0,0,0,0,0,0,0,-1.5744,-1.5787,-1.5724,-1.5676,-1.5671,-1.5656,-1.5654,-1.5653,-1.5577,-1.5575,-1.5573,-1.5572,-1.5502,-1.5501,-1.55,-1.5527,0,0,-1.5496,-1.5496,0,0,0,0,0,0,0,0,-1.5747,-1.5742,-1.5684,-1.5679,-1.5674,-1.5623,-1.5651,-1.5611,-1.5577,-1.5613,-1.5573,-1.5571,-1.5543,-1.5539,-1.5529,-1.5523,-1.552,-1.5496,-1.5495,-1.5495,-1.5494,0,0,0,0,0,0,0,-1.575,-1.5744,-1.5697,-1.5683,-1.5677,-1.5657,-1.5649,-1.5643,-1.5588,-1.5609,-1.5603,-1.5596,-1.554,-1.5531,-1.5527,-1.5519,-1.5496,-1.5495,-1.5494,-1.5494,-1.5531,-1.5533,0,0,0,0,0,0,-1.576,-1.5748,-1.5699,-1.5695,-1.5707,-1.5658,-1.5649,-1.5641,-1.5588,-1.5579,-1.5598,-1.5593,-1.5534,-1.5529,-1.5524,-1.5552,-1.5495,-1.5494,-1.5493,-1.5529,-1.5531,-1.5533,0,0,0,0,0,0,-1.5762,-1.5757,-1.5702,-1.572,-1.5711,-1.5658,-1.565,-1.564,-1.5631,-1.558,-1.5569,-1.5599,-1.5532,-1.5526,-1.5527,-1.5548,-1.5493,-1.5492,-1.5527,-1.553,-1.5532,-1.5607,0,0,0,0,0,0,-1.5764,-1.5758,-1.5768,-1.572,-1.571,-1.5706,-1.5652,-1.564,-1.5629,-1.5622,-1.5577,-1.5568,-1.553,-1.5529,-1.5525,-1.5546,-1.5491,-1.5525,-1.5529,-1.5532,-1.5603,-1.5612,-1.562,0,0,0,0,0,-1.5767,-1.5791,-1.5768,-1.5763,-1.5721,-1.5707,-1.5701,-1.5657,-1.5631,-1.564,-1.5607,-1.557,-1.5547,-1.553,-1.5525,-1.5545,-1.5524,-1.5528,-1.5531,-1.5599,-1.561,-1.562,0,0,0,0,0,0,-1.5842,-1.5784,-1.5758,-1.5768,-1.5743,-1.5694,-1.5704,-1.5671,-1.5653,-1.5647,-1.5593,-1.5583,-1.559,-1.5568,-1.555,-1.5568,-1.553,-1.5533,-1.5582,-1.5593,-1.5602,-1.5607,-1.549,0,0,0,0,0,-1.586,-1.5853,-1.5803,-1.5817,-1.5805,-1.5757,-1.5749,-1.5718,-1.5689,-1.5678,-1.5645,-1.5619,-1.5606,-1.5598,-1.5583,-1.5599,-1.5588,-1.5611,-1.562,-1.5627,-1.563,-1.5637,-1.5646,-1.5546,-1.5546,-1.5546,0,0,-1.5897,-1.5864,-1.5863,-1.5831,-1.5808,-1.5802,-1.5749,-1.5745,-1.574,-1.5677,-1.5676,-1.5651,-1.5618,-1.5627,-1.5629,-1.5608,-1.5656,-1.5632,-1.5638,-1.5637,-1.5642,-1.5651,-1.566,-1.5549,-1.5548,-1.5548,0,0,-1.596,-1.5935,-1.5944,-1.5922,-1.5887,-1.5855,-1.5858,-1.5813,-1.5794,-1.5792,-1.5745,-1.5739,-1.5717,-1.5695,-1.5682,-1.5738,-1.5702,-1.5734,-1.578,-1.5787,-1.5795,-1.5802,-1.5821,-1.5829,-1.5738,-1.5738,-1.5738,0,-1.601,-1.5999,-1.5952,-1.5951,-1.5938,-1.5882,-1.589,-1.5871,-1.5834,-1.5826,-1.5804,-1.5775,-1.5749,-1.5752,-1.5766,-1.5756,-1.5757,-1.5739,-1.5798,-1.5804,-1.581,-1.5828,-1.5835,-1.5742,-1.5742,-1.5741,-1.5741,0,-1.6062,-1.6055,-1.6066,-1.6032,-1.602,-1.6024,-1.5977,-1.5971,-1.5941,-1.5911,-1.5909,-1.5876,-1.5853,-1.5852,-1.5822,-1.585,-1.5838,-1.5808,-1.5768,-1.5824,-1.584,-1.5847,-1.5748,-1.5747,-1.5745,-1.5744,0,0,-1.6171,-1.611,-1.6115,-1.6099,-1.6057,-1.6051,-1.6052,-1.603,-1.6025,-1.6002,-1.6001,-1.5984,-1.5956,-1.594,-1.5908,-1.5914,-1.596,-1.5882,-1.5881,-1.5897,-1.5989,-1.6012,-1.602,-1.5937,-1.5938,-1.5939,-1.5991,0,-1.6227,-1.6225,-1.6183,-1.6193,-1.6186,-1.6133,-1.6133,-1.6108,-1.608,-1.607,-1.604,-1.6029,-1.5992,-1.5982,-1.5986,-1.5954,-1.5978,-1.5949,-1.5935,-1.5935,-1.5944,-1.6029,-1.6053,-1.6104,-1.5997,-1.5998,-1.5999,0,-1.6291,-1.6271,-1.6281,-1.6239,-1.6234,-1.6236,-1.6212,-1.6203,-1.6173,-1.6153,-1.6136,-1.6099,-1.6097,-1.606,-1.6056,-1.6038,-1.603,-1.6013,-1.6014,-1.601,-1.597,-1.6027,-1.6119,-1.6127,-1.6008,-1.6008,-1.6007,0,-1.6369,-1.6345,-1.6347,-1.6335,-1.6286,-1.6288,-1.6268,-1.6236,-1.6226,-1.6205,-1.6198,-1.6177,-1.6166,-1.6151,-1.6109,-1.6086,-1.611,-1.607,-1.6093,-1.6094,-1.61,-1.61,-1.6191,-1.6096,-1.6095,-1.6095,-1.6095,0,-1.6436,-1.6443,-1.6382,-1.6383,-1.639,-1.6342,-1.635,-1.6325,-1.6297,-1.6293,-1.6246,-1.6242,-1.6188,-1.6178,-1.6146,-1.6147,-1.6143,-1.6126,-1.6117,-1.613,-1.6132,-1.6123,-1.6118,-1.6097,-1.6097,-1.6096,-1.6096,0,-1.6524,-1.6483,-1.6482,-1.6435,-1.6424,-1.6431,-1.6392,-1.6391,-1.6361,-1.6356,-1.6352,-1.6304,-1.629,-1.6248,-1.6223,-1.6202,-1.6213,-1.6196,-1.6223,-1.6217,-1.6242,-1.6241,-1.6331,-1.634,-1.624,-1.6241,-1.6242,0,-1.6568,-1.6573,-1.6528,-1.6521,-1.6503,-1.6493,-1.6482,-1.6435,-1.6425,-1.6392,-1.6395,-1.6378,-1.6362,-1.6343,-1.6306,-1.6287,-1.6269,-1.6302,-1.6266,-1.6279,-1.6269,-1.6269,-1.6269,-1.631,-1.6311,-1.6312,-1.6313,0,-1.6652,-1.6632,-1.6618,-1.6597,-1.6585,-1.6566,-1.6545,-1.6542,-1.6489,-1.6481,-1.6467,-1.6454,-1.643,-1.6413,-1.6388,-1.6367,-1.6332,-1.6325,-1.6329,-1.6342,-1.6357,-1.6349,-1.6244,-1.6323,-1.6322,-1.6321,-1.6321,-1.6321,-1.6719,-1.6721,-1.6689,-1.6675,-1.6654,-1.6635,-1.6632,-1.6602,-1.6589,-1.6565,-1.6538,-1.6527,-1.6497,-1.646,-1.6441,-1.6432,-1.6413,-1.6419,-1.642,-1.6422,-1.6428,-1.636,-1.6427,-1.6427,-1.6427,-1.6426,-1.6426,0,-1.6801,-1.6777,-1.6765,-1.6736,-1.6726,-1.6693,-1.6668,-1.6661,-1.6652,-1.6626,-1.6611,-1.6595,-1.6579,-1.6541,-1.6521,-1.6521,-1.6504,-1.6517,-1.6516,-1.6512,-1.6447,-1.6445,-1.6531,-1.6531,-1.6531,-1.6531,-1.6531,-1.6531,-1.6841,-1.6842,-1.6818,-1.6808,-1.6785,-1.6774,-1.6762,-1.6744,-1.6724,-1.6708,-1.6694,-1.6669,-1.6639,-1.6616,-1.66,-1.6589,-1.6584,-1.6602,-1.6587,-1.6526,-1.6516,-1.6507,-1.6505,-1.6602,-1.6602,-1.6652,-1.6652,-1.6653]},{"header":{"parameterUnit":"m.s-1","parameterCategory":1,"la1":30.2991,"la2":30.254,"lo1":-89.0895,"lo2":-89.0444,"dy":0.0017,"dx":0.0017,"nx":28,"ny":28,"refTime":"2025-03-12T21:00:00:Z","depth":0,"parameterNumber":3,"parameterNumberName":"V-component_of_WINDS"},"data":[0,0,0,0,0,0,0,0,0,0,0,0,0,0,0,0,0,0,0,0,0,0,0,0,0,0,0,0,0,0,0,0,0,0,0,0,0,0,0,0,0,0,0,0,0,0,0,0,0,0,0,0,0,0,0,0,0,0,2.7281,2.7281,0,2.7289,2.7289,2.7289,2.729,2.729,2.729,2.729,2.7298,2.7299,2.7299,0,0,0,0,0,0,0,0,0,0,0,0,0,2.7267,2.7268,2.7281,2.7281,2.7281,2.7289,2.7289,2.7289,2.729,2.729,2.729,2.729,2.7298,2.7298,2.7299,0,0,0,0,0,0,0,0,0,0,0,0,0,2.7274,2.7268,2.7281,2.7282,2.7283,2.7289,2.7289,2.7289,2.729,2.729,2.729,2.729,2.7298,2.7298,2.7299,2.7304,0,0,2.73,2.73,0,0,0,0,0,0,0,0,2.7274,2.7274,2.7282,2.7282,2.7282,2.7288,2.7287,2.7294,2.729,2.7287,2.729,2.7289,2.7295,2.7296,2.7297,2.7304,2.7305,2.73,2.7301,2.7301,2.7301,0,0,0,0,0,0,0,2.7273,2.7274,2.7284,2.7282,2.7282,2.7283,2.7284,2.7289,2.7292,2.7287,2.7287,2.7288,2.7295,2.7297,2.7298,2.7305,2.73,2.7301,2.7301,2.7301,2.7318,2.7318,0,0,0,0,0,0,2.7272,2.7274,2.7284,2.7284,2.7278,2.7283,2.7284,2.7286,2.7292,2.7292,2.7288,2.7288,2.7296,2.7297,2.7298,2.7305,2.7301,2.7301,2.7301,2.7318,2.7318,2.7318,0,0,0,0,0,0,2.7272,2.7273,2.7283,2.7279,2.728,2.7284,2.7286,2.7287,2.7289,2.7292,2.7293,2.729,2.7296,2.7297,2.7303,2.7306,2.7301,2.7302,2.7318,2.7318,2.7318,2.732,0,0,0,0,0,0,2.7272,2.7273,2.7275,2.7279,2.7281,2.7288,2.7286,2.7287,2.7289,2.7289,2.7294,2.7294,2.7296,2.7302,2.7303,2.7306,2.7302,2.7318,2.7318,2.7318,2.7319,2.732,2.732,0,0,0,0,0,2.7271,2.7274,2.7275,2.7276,2.7283,2.7288,2.7289,2.729,2.7289,2.7291,2.7294,2.7294,2.7305,2.7303,2.7304,2.7307,2.7317,2.7318,2.7318,2.7319,2.732,2.732,0,0,0,0,0,0,2.727,2.7275,2.7275,2.728,2.7284,2.7288,2.729,2.7291,2.7295,2.7295,2.7297,2.7298,2.7304,2.7306,2.7303,2.7313,2.7311,2.7312,2.7311,2.7312,2.7313,2.7312,2.7303,0,0,0,0,0,2.727,2.7274,2.7278,2.7282,2.7284,2.7287,2.7289,2.729,2.7294,2.7295,2.7298,2.7302,2.7307,2.7309,2.7314,2.732,2.7321,2.7323,2.7323,2.7323,2.7324,2.7329,2.733,2.732,2.732,2.732,0,0,2.7271,2.7274,2.7276,2.7282,2.7285,2.7289,2.7288,2.7292,2.7295,2.7296,2.7302,2.7304,2.7309,2.7315,2.7318,2.7317,2.7327,2.7324,2.7324,2.7325,2.733,2.733,2.7331,2.732,2.732,2.732,0,0,2.7274,2.7277,2.7281,2.7284,2.7288,2.7291,2.7292,2.7296,2.7298,2.7304,2.7305,2.7309,2.7316,2.732,2.7322,2.7329,2.733,2.733,2.7333,2.7338,2.7338,2.7339,2.7343,2.7344,2.7331,2.7331,2.7331,0,2.7275,2.7281,2.7283,2.7287,2.729,2.7291,2.7296,2.7299,2.7304,2.7307,2.7306,2.7316,2.7319,2.7326,2.7328,2.733,2.7332,2.733,2.7338,2.7339,2.734,2.7343,2.7344,2.7331,2.7331,2.7331,2.7331,0,2.7281,2.7286,2.7288,2.7294,2.7297,2.7302,2.7305,2.7308,2.731,2.7312,2.7319,2.7323,2.7328,2.733,2.7331,2.7339,2.7338,2.7337,2.7336,2.7341,2.7344,2.7345,2.7331,2.7331,2.7331,2.7331,0,0,2.7283,2.7291,2.7292,2.7296,2.7301,2.7305,2.731,2.7316,2.7319,2.7323,2.7328,2.7334,2.7335,2.7338,2.7339,2.7343,2.735,2.7343,2.7343,2.7345,2.736,2.736,2.7362,2.735,2.735,2.7351,2.736,0,2.7288,2.7297,2.73,2.7307,2.7312,2.7314,2.7319,2.7323,2.7326,2.7331,2.7334,2.7339,2.7338,2.734,2.7344,2.7348,2.7353,2.7347,2.7356,2.7356,2.7355,2.7363,2.7364,2.7372,2.7361,2.7361,2.7361,0,2.7294,2.7299,2.7307,2.7314,2.7316,2.732,2.7326,2.733,2.7336,2.7338,2.7342,2.7344,2.735,2.7348,2.7358,2.7354,2.7357,2.736,2.736,2.7362,2.7359,2.7366,2.7374,2.7376,2.7363,2.7363,2.7363,0,2.7296,2.7305,2.7311,2.7314,2.7321,2.7324,2.7327,2.7333,2.7337,2.7342,2.7345,2.7351,2.7355,2.736,2.7364,2.7361,2.7373,2.7371,2.7376,2.7376,2.7378,2.7378,2.7389,2.738,2.738,2.738,2.7379,0,2.7301,2.7307,2.7312,2.7316,2.7323,2.7326,2.7332,2.7336,2.7341,2.7346,2.7348,2.7353,2.7358,2.7364,2.7367,2.7375,2.7376,2.7379,2.738,2.7379,2.7379,2.7382,2.7381,2.738,2.738,2.738,2.738,0,2.7304,2.7308,2.7316,2.7322,2.7324,2.7329,2.7335,2.7339,2.7343,2.735,2.7352,2.7357,2.7364,2.7369,2.7378,2.738,2.7389,2.7389,2.7387,2.7388,2.7393,2.7393,2.7406,2.7409,2.7397,2.7397,2.7397,0,2.7308,2.7312,2.7319,2.7323,2.7327,2.7332,2.7337,2.7341,2.7345,2.7352,2.7356,2.7364,2.737,2.7382,2.7387,2.7394,2.7395,2.74,2.7396,2.7396,2.7397,2.7397,2.7398,2.74,2.74,2.74,2.74,0,2.7313,2.7315,2.7321,2.7328,2.7333,2.7338,2.7344,2.7347,2.7352,2.7357,2.7365,2.737,2.738,2.7387,2.7396,2.74,2.7401,2.7401,2.7403,2.7403,2.7402,2.7404,2.739,2.7401,2.7401,2.7401,2.7401,2.7401,2.7317,2.7321,2.7328,2.7334,2.7339,2.7345,2.735,2.7354,2.7361,2.7369,2.7371,2.738,2.7387,2.7398,2.7402,2.7409,2.7409,2.7411,2.7412,2.7412,2.7413,2.74,2.7411,2.7411,2.7411,2.7411,2.7411,0,2.7323,2.7328,2.7334,2.7342,2.7348,2.7349,2.7356,2.7361,2.7368,2.7374,2.7381,2.739,2.7398,2.7405,2.7413,2.7418,2.7419,2.742,2.742,2.7422,2.7413,2.7411,2.7419,2.7419,2.7419,2.7419,2.7419,2.7419,2.7327,2.7335,2.7338,2.7349,2.7354,2.7362,2.7366,2.7372,2.7377,2.7388,2.7394,2.7399,2.7406,2.7415,2.7423,2.7425,2.7428,2.7429,2.7431,2.7423,2.7422,2.7421,2.7419,2.743,2.743,2.744,2.744,2.744]}]]